TimePST,TemperatureF,Dew PointF,Humidity,Sea Level PressureIn,VisibilityMPH,Wind Direction,Wind SpeedMPH,Gust SpeedMPH,PrecipitationIn,Events,Conditions,WindDirDegrees,DateUTC
12:15 AM,46.4,28.4,50,29.97,10.0,South,27.6,32.2,N/A,,Overcast,170,2012-11-16 08:15:00
12:35 AM,46.4,30.2,53,29.95,10.0,South,20.7,32.2,N/A,,Overcast,180,2012-11-16 08:35:00
12:55 AM,46.4,28.4,50,29.96,10.0,South,20.7,28.8,N/A,,Scattered Clouds,190,2012-11-16 08:55:00
1:15 AM,46.4,30.2,53,29.98,10.0,SSW,8.1,-,N/A,,Scattered Clouds,200,2012-11-16 09:15:00
1:35 AM,46.4,30.2,53,29.98,10.0,SSW,19.6,25.3,N/A,,Scattered Clouds,200,2012-11-16 09:35:00
1:55 AM,46.4,30.2,53,29.98,10.0,South,20.7,26.5,N/A,,Scattered Clouds,190,2012-11-16 09:55:00
2:15 AM,46.4,28.4,50,29.97,10.0,South,24.2,33.4,N/A,,Partly Cloudy,190,2012-11-16 10:15:00
2:35 AM,46.4,30.2,53,29.96,10.0,South,18.4,31.1,N/A,,Partly Cloudy,190,2012-11-16 10:35:00
2:55 AM,46.4,28.4,50,29.96,10.0,South,17.3,29.9,N/A,,Mostly Cloudy,190,2012-11-16 10:55:00
3:15 AM,44.6,28.4,53,29.96,10.0,South,11.5,23.0,N/A,,Overcast,170,2012-11-16 11:15:00
3:35 AM,44.6,30.2,57,29.96,10.0,SSE,12.7,16.1,N/A,,Overcast,160,2012-11-16 11:35:00
3:55 AM,46.4,30.2,53,29.95,10.0,South,15.0,18.4,N/A,,Mostly Cloudy,170,2012-11-16 11:55:00
4:15 AM,46.4,28.4,50,29.96,10.0,South,11.5,-,N/A,,Mostly Cloudy,170,2012-11-16 12:15:00
4:35 AM,46.4,30.2,53,29.96,10.0,South,13.8,19.6,N/A,,Overcast,180,2012-11-16 12:35:00
4:55 AM,46.4,30.2,53,29.95,10.0,South,17.3,24.2,N/A,,Overcast,180,2012-11-16 12:55:00
5:15 AM,46.4,28.4,50,29.95,10.0,South,18.4,23.0,N/A,,Overcast,170,2012-11-16 13:15:00
5:35 AM,44.6,28.4,53,29.95,10.0,SSE,15.0,20.7,N/A,,Mostly Cloudy,160,2012-11-16 13:35:00
5:55 AM,44.6,28.4,53,29.95,10.0,SSE,16.1,23.0,N/A,,Clear,150,2012-11-16 13:55:00
6:15 AM,44.6,28.4,53,29.95,10.0,South,15.0,20.7,N/A,,Clear,170,2012-11-16 14:15:00
6:35 AM,44.6,28.4,53,29.95,10.0,South,19.6,24.2,N/A,,Clear,170,2012-11-16 14:35:00
6:55 AM,44.6,28.4,53,29.95,10.0,South,16.1,20.7,N/A,,Clear,170,2012-11-16 14:55:00
7:15 AM,44.6,28.4,53,29.96,10.0,South,15.0,25.3,N/A,,Clear,180,2012-11-16 15:15:00
7:35 AM,44.6,28.4,53,29.97,10.0,South,11.5,-,N/A,,Clear,180,2012-11-16 15:35:00
7:55 AM,46.4,28.4,50,29.98,10.0,South,13.8,20.7,N/A,,Clear,170,2012-11-16 15:55:00
8:15 AM,46.4,28.4,50,29.98,10.0,SSE,6.9,-,N/A,,Clear,150,2012-11-16 16:15:00
8:35 AM,46.4,28.4,50,29.98,10.0,South,13.8,19.6,N/A,,Clear,190,2012-11-16 16:35:00
8:55 AM,46.4,28.4,50,29.97,10.0,South,15.0,-,N/A,,Clear,190,2012-11-16 16:55:00
9:15 AM,46.4,28.4,50,29.97,10.0,South,17.3,25.3,N/A,,Clear,190,2012-11-16 17:15:00
9:35 AM,46.4,28.4,50,29.98,10.0,South,17.3,23.0,N/A,,Clear,190,2012-11-16 17:35:00
9:55 AM,48.2,28.4,46,29.98,10.0,SSW,21.9,27.6,N/A,,Mostly Cloudy,200,2012-11-16 17:55:00
10:15 AM,48.2,28.4,46,29.97,10.0,SSW,21.9,32.2,N/A,,Overcast,200,2012-11-16 18:15:00
10:35 AM,48.2,30.2,50,29.97,10.0,South,21.9,27.6,N/A,,Scattered Clouds,190,2012-11-16 18:35:00
10:55 AM,48.2,28.4,46,29.97,10.0,South,18.4,27.6,N/A,,Partly Cloudy,190,2012-11-16 18:55:00
11:15 AM,48.2,30.2,50,29.96,10.0,South,20.7,-,N/A,,Partly Cloudy,180,2012-11-16 19:15:00
11:35 AM,50.0,30.2,47,29.95,10.0,South,16.1,24.2,N/A,,Partly Cloudy,190,2012-11-16 19:35:00
11:55 AM,51.8,32.0,47,29.94,10.0,SSW,21.9,26.5,N/A,,Clear,200,2012-11-16 19:55:00
12:15 PM,51.8,32.0,47,29.94,10.0,South,18.4,23.0,N/A,,Clear,180,2012-11-16 20:15:00
12:35 PM,51.8,32.0,47,29.94,10.0,South,19.6,24.2,N/A,,Clear,190,2012-11-16 20:35:00
12:55 PM,51.8,30.2,44,29.94,10.0,South,15.0,24.2,N/A,,Clear,190,2012-11-16 20:55:00
1:15 PM,51.8,32.0,47,29.93,10.0,South,15.0,23.0,N/A,,Scattered Clouds,180,2012-11-16 21:15:00
1:35 PM,51.8,32.0,47,29.92,10.0,South,16.1,21.9,N/A,,Mostly Cloudy,190,2012-11-16 21:35:00
1:55 PM,51.8,32.0,47,29.92,10.0,South,17.3,-,N/A,,Partly Cloudy,190,2012-11-16 21:55:00
2:15 PM,51.8,30.2,44,29.91,10.0,South,16.1,21.9,N/A,,Clear,190,2012-11-16 22:15:00
2:35 PM,51.8,30.2,44,29.92,10.0,SSW,19.6,25.3,N/A,,Clear,200,2012-11-16 22:35:00
2:55 PM,51.8,30.2,44,29.92,10.0,SSW,18.4,-,N/A,,Clear,200,2012-11-16 22:55:00
3:15 PM,51.8,32.0,47,29.92,10.0,South,15.0,-,N/A,,Clear,190,2012-11-16 23:15:00
3:35 PM,51.8,30.2,44,29.91,10.0,South,11.5,-,N/A,,Clear,180,2012-11-16 23:35:00
3:55 PM,48.2,30.2,50,29.92,10.0,South,8.1,-,N/A,,Scattered Clouds,170,2012-11-16 23:55:00
4:15 PM,48.2,30.2,50,29.92,10.0,SSE,10.4,-,N/A,,Scattered Clouds,150,2012-11-17 00:15:00
4:35 PM,48.2,30.2,50,29.91,10.0,SSW,17.3,24.2,N/A,,Mostly Cloudy,200,2012-11-17 00:35:00
4:55 PM,48.2,30.2,50,29.91,10.0,South,17.3,23.0,N/A,,Overcast,190,2012-11-17 00:55:00
5:15 PM,48.2,30.2,50,29.92,10.0,SSE,12.7,19.6,N/A,,Overcast,160,2012-11-17 01:15:00
5:35 PM,48.2,30.2,50,29.93,10.0,SSE,17.3,23.0,N/A,,Mostly Cloudy,150,2012-11-17 01:35:00
5:55 PM,48.2,30.2,50,29.93,10.0,South,16.1,21.9,N/A,,Mostly Cloudy,170,2012-11-17 01:55:00
6:15 PM,48.2,30.2,50,29.93,10.0,South,19.6,24.2,N/A,,Mostly Cloudy,180,2012-11-17 02:15:00
6:35 PM,48.2,30.2,50,29.92,10.0,SSE,15.0,25.3,N/A,,Scattered Clouds,160,2012-11-17 02:35:00
6:55 PM,48.2,30.2,50,29.92,10.0,South,17.3,24.2,N/A,,Mostly Cloudy,170,2012-11-17 02:55:00
7:15 PM,48.2,30.2,50,29.92,10.0,South,17.3,21.9,N/A,,Overcast,170,2012-11-17 03:15:00
7:55 PM,48.2,30.2,50,29.92,10.0,South,9.2,21.9,N/A,,Overcast,170,2012-11-17 03:55:00
8:15 PM,48.2,30.2,50,29.92,10.0,SE,10.4,20.7,N/A,,Overcast,140,2012-11-17 04:15:00
8:35 PM,48.2,30.2,50,29.92,10.0,ESE,15.0,24.2,N/A,,Overcast,120,2012-11-17 04:35:00
8:55 PM,48.2,30.2,50,29.92,10.0,SE,9.2,17.3,N/A,,Overcast,130,2012-11-17 04:55:00
9:15 PM,48.2,30.2,50,29.93,10.0,SSE,12.7,-,N/A,,Overcast,150,2012-11-17 05:15:00
9:35 PM,48.2,30.2,50,29.93,10.0,SSE,8.1,-,N/A,,Overcast,150,2012-11-17 05:35:00
9:55 PM,48.2,32.0,54,29.92,10.0,SE,8.1,17.3,N/A,,Overcast,140,2012-11-17 05:55:00
10:15 PM,46.4,32.0,57,29.92,10.0,SE,11.5,-,N/A,,Overcast,130,2012-11-17 06:15:00
10:35 PM,46.4,32.0,57,29.92,10.0,SE,6.9,-,N/A,,Overcast,140,2012-11-17 06:35:00
10:55 PM,46.4,32.0,57,29.92,10.0,SSE,9.2,-,N/A,,Overcast,150,2012-11-17 06:55:00
11:15 PM,46.4,32.0,57,29.91,10.0,South,11.5,-,N/A,,Overcast,180,2012-11-17 07:15:00
11:35 PM,46.4,33.8,62,29.91,10.0,South,10.4,-,N/A,,Overcast,180,2012-11-17 07:35:00
11:55 PM,46.4,33.8,62,29.91,10.0,SSE,6.9,-,N/A,,Overcast,160,2012-11-17 07:55:00